DECAYED

H-2A DEB, 43675 (Decayed)

Orbit data source: Space-Track

H-2A DEB, 43675 was space debris in LEO originally from a launch on Mon, 29 Oct 2018 UTC launched from the Tanegashima Space Center (TNSTA). Debris objects in space refer to the collection of defunct objects orbiting the Earth. Examples of debris include non-operational satellites, rocket bodies, and fragments generated from explosions, collisions, or faulty payload assembly.

Not visible in the next 10 days
Identifier
43675, 2018-084E
Orbit
Decayed
Country
Flag of JPJP / JPN
Related business
Manufacturer
Kawasaki
Mission
Decayed spacecraft
Bus & Motor
Unknown
Mass
~100 kg wet, ~100 kg dry
Launch date (UTC)
2018-10-29 (8 years ago)
Launch vehicle
Unknown
Launch site
Tanegashima Space Center (TNSTA)
Object type
Payload
Rocket body
Debris
Shape & HBR
Cone, 2.0 m
Radar Cross Section
6.654 m², Large (>1 m²)

Expand to show TLE details & history
Last TLE update: 5 months ago

TLE from 5 months ago
0 H-2A DEB
1 43675U 18084E   26067.89637679  .14320155  29055-5  13991-2 0  9994
2 43675  97.9890 284.8636 0008171 270.2383  89.7978 16.38301702403004
Epoch: 2026-03-08T21:30Z
TLE epoch observation values (Epoch: 2026-03-08T21:30:46.954Z)
Latitude
0.00003°
Longitude
155.57086°
Altitude
173.54 km
Speed
7.802 km/s
True Right ascension
18h 59m 27s
True Declination
0° 00' 00"
Sunlit
Object was in daylight at epoch
Visualization orbit readout
Latitude
Unknown
Longitude
Unknown
Altitude
Unknown
Speed
Unknown
Apparent Right ascension
Unknown
Apparent Declination
Unknown
Sunlit
N/A
Visualization observer readout
Local Sidereal Time
21:10:51
Azimuth
Unknown
Elevation
Unknown
Doppler factor
Unknown
Orbital elements
Apogee altitude
172.51 km
Perigee altitude
161.813 km
Semi-major axis
6,545.298 km
Eccentricity
0.00082
Inclination
97.989°
RAAN
284.8636°
Arg. of periapsis
270.2383°
True anomaly
89.89143°
Mean anomaly
89.7978°
Eccentric anomaly
89.84462°
Mean motion
4.09873 °/min
Orbital period
87.83 mins
BSTAR
0.0013991
Loading maneuver chart data...
Computing Atmospheric mass density...

Documentation

Showing up to 5 results
|